Fortuna, CA

5:10 AM PST on December 15, 2019 (GMT -0800)
Rohnerville

Weather History for KFOT - September, 2019

Change the Weather History Date:

Tuesday, September 17, 2019

  Actual Average (WUND) Record (WUND)
Temperature  
Mean Temperature 60 °F -  
Max Temperature 69 °F - - (-1)
Min Temperature 50 °F - - (-1)
Degree Days  
Heating Degree Days 6    
Growing Degree Days 10 (Base 50)    
Moisture  
Dew Point 53 °F    
Average Humidity 80    
Maximum Humidity 100    
Minimum Humidity 52    
Precipitation  
Precipitation 0.33 in - - ()
Sea Level Pressure  
Sea Level Pressure 30.02 in    
Wind  
Wind Speed 9 mph ()    
Max Wind Speed 16 mph    
Max Gust Speed 21 mph    
Visibility 8.4 miles    
Events      
Averages and records for this station are not official NWS values.
T = Trace of Precipitation, MM = Missing Value Source: Averaged Metar Reports

Daily Weather History Graph

Daily Weather History Graph

Search for Another Location

Airport or City:

Astronomy

Sep. 17, 2019 Rise Set
Actual Time 6:59 AM PDT 7:22 PM PDT
Civil Twilight 6:31 AM PDT 7:49 PM PDT
Nautical Twilight 5:59 AM PDT 8:21 PM PDT
Astronomical Twilight 5:26 AM PDT 8:54 PM PDT
Moon 9:27 PM PDT (9/17) 10:09 AM PDT (9/17)
Length of Visible Light 13h 17m
Length of Day
12h 23m
Waning Gibbous, 88% of the Moon is Illuminated
Sep 17
Waning Gibbous
Sep 21
Last Quarter
Sep 28
New
Oct 5
First Quarter
Oct 13
Full

Hourly Weather History & Observations

Time (PDT) Temp. Dew Point Humidity Pressure Visibility Wind Dir Wind Speed Gust Speed Precip Events Conditions
12:15 AM 53.6 °F 53.6 °F 100% 30.05 in 10.0 mi SE 8.1 mph - N/A   Clear
12:35 AM 53.6 °F 51.8 °F 94% 30.05 in 10.0 mi SE 6.9 mph - N/A   Clear
12:55 AM 53.6 °F 51.8 °F 94% 30.05 in 10.0 mi SSE 8.1 mph - N/A   Clear
1:15 AM 51.8 °F 51.8 °F 100% 30.06 in 10.0 mi SE 9.2 mph - N/A   Clear
1:35 AM 51.8 °F 51.8 °F 100% 30.06 in 10.0 mi SE 8.1 mph - N/A   Clear
1:55 AM 51.8 °F 50.0 °F 94% 30.07 in 0.2 mi SSE 8.1 mph - N/A   Mostly Cloudy
2:15 AM 50.0 °F 50.0 °F 100% 30.06 in 0.2 mi SE 9.2 mph - N/A   Overcast
2:35 AM 50.0 °F 50.0 °F 100% 30.06 in 0.5 mi SE 9.2 mph - N/A   Unknown
2:55 AM 50.0 °F 50.0 °F 100% 30.06 in 1.8 mi SE 8.1 mph - N/A   Clear
3:15 AM 50.0 °F 50.0 °F 100% 30.06 in 10.0 mi SE 9.2 mph - N/A   Clear
3:35 AM 50.0 °F 50.0 °F 100% 30.06 in 10.0 mi SE 9.2 mph - N/A   Clear
3:55 AM 50.0 °F 50.0 °F 100% 30.06 in 10.0 mi SE 9.2 mph - N/A   Clear
4:15 AM 50.0 °F 50.0 °F 100% 30.06 in 10.0 mi SSE 9.2 mph - N/A   Clear
4:35 AM 50.0 °F 50.0 °F 100% 30.06 in 10.0 mi SE 9.2 mph - N/A   Clear
4:55 AM 50.0 °F 50.0 °F 100% 30.06 in 10.0 mi SE 9.2 mph - N/A   Mostly Cloudy
5:15 AM 50.0 °F 50.0 °F 100% 30.06 in 10.0 mi SE 9.2 mph - N/A   Mostly Cloudy
5:35 AM 50.0 °F 50.0 °F 100% 30.05 in 10.0 mi ESE 11.5 mph - N/A   Overcast
5:55 AM 51.8 °F 50.0 °F 94% 30.05 in 10.0 mi ESE 10.4 mph - N/A   Overcast
6:15 AM 51.8 °F 50.0 °F 94% 30.06 in 10.0 mi SE 10.4 mph - N/A   Overcast
6:55 AM 50.0 °F 48.2 °F 94% 30.06 in 10.0 mi ESE 13.8 mph - N/A   Partly Cloudy
7:15 AM 50.0 °F 48.2 °F 94% 30.06 in 10.0 mi SE 11.5 mph - N/A   Mostly Cloudy
7:35 AM 51.8 °F 50.0 °F 94% 30.06 in 10.0 mi SE 11.5 mph - N/A   Mostly Cloudy
7:55 AM 53.6 °F 50.0 °F 88% 30.07 in 10.0 mi ESE 12.7 mph - N/A   Mostly Cloudy
8:10 AM 55.4 °F 50.0 °F 82% 30.07 in 10.0 mi ESE 13.8 mph - N/A   Mostly Cloudy
8:35 AM 55.4 °F 51.8 °F 88% 30.07 in 10.0 mi ESE 11.5 mph - N/A   Overcast
8:55 AM 55.4 °F 51.8 °F 88% 30.07 in 10.0 mi ESE 12.7 mph - N/A   Mostly Cloudy
9:15 AM 59.0 °F 53.6 °F 82% 30.07 in 10.0 mi SE 10.4 mph - N/A   Scattered Clouds
9:35 AM 60.8 °F 53.6 °F 77% 30.07 in 10.0 mi ESE 10.4 mph - N/A   Scattered Clouds
9:55 AM 60.8 °F 53.6 °F 77% 30.06 in 10.0 mi SE 12.7 mph - N/A   Partly Cloudy
10:15 AM 64.4 °F 53.6 °F 68% 30.06 in 10.0 mi ESE 12.7 mph - N/A   Mostly Cloudy
10:35 AM 64.4 °F 53.6 °F 68% 30.06 in 10.0 mi ESE 12.7 mph - N/A   Overcast
10:55 AM 64.4 °F 51.8 °F 64% 30.06 in 10.0 mi SE 10.4 mph - N/A   Overcast
11:15 AM 66.2 °F 51.8 °F 60% 30.05 in 10.0 mi SE 10.4 mph - N/A   Overcast
11:35 AM 68.0 °F 53.6 °F 60% 30.05 in 10.0 mi SSE 9.2 mph - N/A   Overcast
11:55 AM 68.0 °F 51.8 °F 56% 30.06 in 10.0 mi ESE 9.2 mph - N/A   Mostly Cloudy
12:15 PM 68.0 °F 51.8 °F 56% 30.05 in 10.0 mi SE 10.4 mph - N/A   Overcast
12:35 PM 68.0 °F 51.8 °F 56% 30.05 in 10.0 mi SE 10.4 mph - N/A   Mostly Cloudy
12:55 PM 68.0 °F 51.8 °F 56% 30.04 in 10.0 mi SE 9.2 mph - N/A   Mostly Cloudy
1:15 PM 68.0 °F 51.8 °F 56% 30.04 in 10.0 mi SE 9.2 mph - N/A   Mostly Cloudy
1:35 PM 68.0 °F 53.6 °F 60% 30.04 in 10.0 mi SSE 8.1 mph - N/A   Overcast
1:55 PM 68.0 °F 53.6 °F 60% 30.03 in 10.0 mi South 12.7 mph 18.4 mph N/A   Overcast
2:15 PM 69.8 °F 53.6 °F 56% 30.02 in 10.0 mi SSE 10.4 mph - N/A   Overcast
2:35 PM 69.8 °F 51.8 °F 53% 30.02 in 10.0 mi SE 10.4 mph - N/A   Mostly Cloudy
2:55 PM 69.8 °F 51.8 °F 53% 30.01 in 10.0 mi SE 8.1 mph 16.1 mph N/A   Mostly Cloudy
3:15 PM 68.0 °F 51.8 °F 56% 30.00 in 10.0 mi SSW 9.2 mph 17.3 mph N/A   Overcast
3:35 PM 68.0 °F 50.0 °F 52% 29.99 in 10.0 mi South 13.8 mph 19.6 mph N/A   Overcast
3:55 PM 68.0 °F 50.0 °F 52% 29.99 in 10.0 mi South 10.4 mph 20.7 mph N/A   Overcast
4:15 PM 68.0 °F 51.8 °F 56% 29.98 in 10.0 mi South 12.7 mph 20.7 mph N/A   Overcast
4:35 PM 68.0 °F 51.8 °F 56% 29.98 in 10.0 mi South 11.5 mph 19.6 mph N/A   Overcast
4:55 PM 68.0 °F 53.6 °F 60% 29.98 in 10.0 mi South 10.4 mph 18.4 mph N/A   Overcast
5:15 PM 66.2 °F 53.6 °F 64% 29.97 in 10.0 mi South 12.7 mph 18.4 mph N/A   Overcast
5:35 PM 66.2 °F 53.6 °F 64% 29.97 in 10.0 mi South 11.5 mph 17.3 mph N/A   Overcast
5:55 PM 68.0 °F 53.6 °F 60% 29.96 in 10.0 mi South 16.1 mph 20.7 mph N/A   Overcast
6:15 PM 66.2 °F 53.6 °F 64% 29.95 in 10.0 mi South 13.8 mph 19.6 mph N/A   Overcast
6:35 PM 66.2 °F 53.6 °F 64% 29.94 in 10.0 mi SSE 9.2 mph 19.6 mph N/A   Mostly Cloudy
6:55 PM 64.4 °F 55.4 °F 73% 29.94 in 5.0 mi SE 11.5 mph - N/A   Overcast
7:15 PM 62.6 °F 57.2 °F 82% 29.93 in 10.0 mi SE 8.1 mph - N/A   Overcast
7:35 PM 62.6 °F 57.2 °F 82% 29.93 in 7.0 mi SSE 5.8 mph - N/A   Overcast
7:55 PM 60.8 °F 57.2 °F 88% 29.94 in 3.0 mi SSE 4.6 mph - 0.04 in   Overcast
8:15 PM 59.0 °F 57.2 °F 94% 29.94 in 5.0 mi East 3.5 mph - 0.01 in   Overcast
8:35 PM 59.0 °F 57.2 °F 94% 29.93 in 4.0 mi ESE 8.1 mph - 0.03 in   Overcast
8:55 PM 59.0 °F 57.2 °F 94% 29.93 in 2.5 mi ESE 10.4 mph - 0.06 in   Overcast
9:15 PM 59.0 °F 57.2 °F 94% 29.94 in 5.0 mi ESE 8.1 mph - 0.01 in   Overcast
9:55 PM 59.0 °F 57.2 °F 94% 29.93 in 1.5 mi ESE 11.5 mph - 0.17 in   Overcast
10:15 PM 59.0 °F 57.2 °F 94% 29.93 in 3.0 mi ESE 6.9 mph - 0.01 in   Overcast
10:35 PM 59.0 °F 57.2 °F 94% 29.93 in 2.5 mi ESE 9.2 mph - 0.03 in   Mostly Cloudy
10:55 PM 59.0 °F 57.2 °F 94% 29.93 in 5.0 mi ESE 11.5 mph - 0.04 in   Overcast
11:15 PM 59.0 °F 57.2 °F 94% 29.93 in 5.0 mi ESE 10.4 mph - 0.02 in   Overcast
11:35 PM 59.0 °F 57.2 °F 94% 29.93 in 10.0 mi ESE 10.4 mph - 0.02 in   Mostly Cloudy
11:55 PM 59.0 °F 57.2 °F 94% 29.93 in 10.0 mi SE 9.2 mph - 0.02 in   Overcast